Find Starlink 35008

NORAD ID: 65408 Int'l Des: 2025-192 Owner: SPXS Country: US Constellation: starlink operational
LEOCIRCULAR

現在のビュー

3D地球を読み込み中...

About Starlink 35008

Starlink 35008 (NORAD 65408) is a starlink constellation satellite (v2 mini) launched Aug 31, 2025 by SPXS of US. It operates in LEO, CIRCULAR orbit with a mass of 575.00 kg.

Starlink 35008について

説明を読み込み中...

次回通過

Passes for default location (London). Set your location on the main map for personalized predictions.

高度履歴

Loading altitude history...

軌道要素

1 65408U 25192E 26194.74399477 .00004747 00000-0 17232-3 0 9994
2 65408 53.1617 6.8397 0000878 124.0890 236.0194 15.30195654 48688
Epoch: Jul 13, 2026 • Age: 16 hours

現在のステータス

高度 477.1 km
遠地点 / 近地点 N/A
速度 7.63 km/s
衛星直下点 -4.01°S, 74.09°W
打ち上げ日 Aug 31, 2025
運用期間 0.8 years
タイプ internet

技術仕様

分類 Payload
質量 575.00 kg
乾燥質量 530.00 kg
総質量 575.00 kg
長さ 0.30 m
直径 4.10 m
スパン 29.00 m
形状 Box + pan
製造者 SPXS
バスタイプ Starlink V2MO
フェーズステータス In Orbit
所有者/国 SPXS/US

Most Searched